DW1824 Weather Reports


time (UTC)temp
F
wind
direction
speed
knots
gust
knots
rain 1hr
in
rain 24hr
in
rain mn
in
humidity
%
barometer
mb
20260503013358 68 319 0.0 0.0 0.00 0.04 0.00 74 1019.8
20260503012403 70 319 0.0 0.0 0.00 0.04 0.00 70 1019.8
20260503011326 71 319 0.0 0.0 0.00 0.04 0.00 64 1019.6
20260503010333 72 319 0.0 0.0 0.00 0.04 0.00 60 1019.4
20260503005357 73 319 0.0 0.0 0.00 0.18 0.00 59 1019.3
20260503004324 74 319 0.0 0.0 0.00 0.18 0.00 55 1019.3
20260503003328 76 318 0.0 1.7 0.00 0.18 0.00 53 1019.1
20260503002332 77 324 0.9 3.5 0.00 0.18 0.00 50 1019.1
20260503000336 79 340 0.9 7.0 0.00 0.18 0.00 47 1018.9
20260502235325 80 335 2.6 8.7 0.00 0.43 0.00 46 1018.9
20260502234327 79 350 1.7 9.6 0.00 0.43 0.00 48 1018.8
20260502233330 78 350 2.6 7.8 0.00 0.43 0.00 46 1018.8
20260502232335 77 306 2.6 8.7 0.00 0.43 0.00 49 1018.8
20260502231359 76 40 1.7 8.7 0.00 0.43 0.00 49 1018.9
20260502230337 76 340 2.6 8.7 0.00 0.43 0.00 52 1018.7
20260502225341 76 345 2.6 8.7 0.00 0.52 0.00 50 1018.7
20260502224325 76 334 4.3 11.3 0.00 0.52 0.00 49 1018.5
20260502223331 76 51 3.5 10.4 0.00 0.52 0.00 50 1018.2
20260502222336 76 15 3.5 10.4 0.00 0.52 0.00 49 1018.6
20260502221402 76 300 1.7 9.6 0.00 0.52 0.00 49 1018.7
20260502220347 76 31 1.7 10.4 0.00 0.52 0.00 52 1018.7
20260502215333 76 294 3.5 10.4 0.00 0.57 0.00 52 1018.9
20260502214336 76 305 5.2 13.0 0.00 0.57 0.00 50 1018.8
20260502213342 76 325 3.5 9.6 0.00 0.57 0.00 53 1019.1
20260502212345 76 340 4.3 10.4 0.00 0.57 0.00 53 1019.1
20260502211349 75 7 4.3 8.7 0.00 0.57 0.00 52 1019.2
20260502210355 75 340 4.3 11.3 0.00 0.57 0.00 53 1019.4
20260502205343 75 45 3.5 11.3 0.00 0.80 0.00 51 1019.4
20260502204331 75 25 5.2 12.2 0.00 0.80 0.00 51 1019.5
20260502203335 75 48 2.6 8.7 0.00 0.80 0.00 53 1019.7
20260502202340 75 340 5.2 11.3 0.00 0.80 0.00 52 1019.9
20260502201344 74 43 6.1 10.4 0.00 0.80 0.00 51 1019.9
20260502200348 74 331 3.5 9.6 0.00 0.80 0.00 53 1020.1
20260502195332 75 16 4.3 11.3 0.00 0.91 0.00 51 1020.3
20260502194334 75 340 4.3 10.4 0.00 0.91 0.00 52 1020.4
20260502193337 75 43 3.5 7.8 0.00 0.91 0.00 54 1020.4
20260502192402 75 354 2.6 8.7 0.00 0.91 0.00 52 1020.6
20260502191326 75 324 2.6 13.0 0.00 0.91 0.00 53 1020.6
20260502190329 75 327 4.3 10.4 0.00 0.91 0.00 51 1020.7
20260502185332 75 355 1.7 12.2 0.00 1.04 0.00 56 1020.9
20260502184333 74 17 5.2 10.4 0.00 1.04 0.00 55 1020.9
20260502183338 74 350 3.5 12.2 0.00 1.04 0.00 53 1021.1
20260502182326 74 340 5.2 9.6 0.00 1.04 0.00 54 1021.2
20260502181331 74 359 3.5 13.0 0.00 1.04 0.00 52 1021.2
20260502180335 74 323 1.7 8.7 0.00 1.04 0.00 55 1021.5
20260502170402 71 49 4.3 12.2 0.00 1.14 0.00 60 1021.9
20260502164329 70 317 0.9 12.2 0.00 1.26 0.00 64 1022.0
20260502163333 69 333 4.3 11.3 0.00 1.26 0.00 66 1021.9
20260502162343 68 11 6.1 10.4 0.00 1.26 0.00 66 1022.0
20260502161327 67 40 3.5 9.6 0.00 1.26 0.00 69 1021.9
20260502160331 66 302 6.1 11.3 0.00 1.26 0.00 72 1021.9
20260502152330 64 308 3.5 9.6 0.00 1.50 0.00 76 1021.6
20260502151335 63 27 2.6 13.9 0.00 1.50 0.00 76 1021.5
20260502150359 63 350 5.2 11.3 0.00 1.50 0.00 77 1021.5
20260502130343 55 322 3.5 8.7 0.00 1.91 0.00 93 1020.3
20260502123328 54 280 2.6 7.8 0.00 2.12 0.00 93 1019.8
20260502122334 53 265 1.7 5.2 0.00 2.12 0.00 93 1019.7
20260502121341 53 317 1.7 4.3 0.00 2.12 0.00 93 1019.5
20260502120329 53 299 1.7 4.3 0.00 2.12 0.00 93 1019.5
20260502115332 53 322 2.6 7.0 0.00 2.26 0.00 93 1019.4
20260502114338 53 316 1.7 3.5 0.00 2.26 0.00 93 1019.4
20260502113325 53 350 0.9 4.3 0.00 2.26 0.00 93 1019.3
20260502112330 53 331 0.9 4.3 0.00 2.26 0.00 93 1019.1
20260502111356 53 4 1.7 5.2 0.00 2.26 0.00 93 1018.8
20260502110338 53 325 2.6 5.2 0.00 2.26 0.00 93 1018.7
20260502105327 53 323 1.7 6.1 0.00 2.39 0.00 93 1018.5
20260502104332 54 345 2.6 7.0 0.00 2.39 0.00 93 1018.6
20260502103337 54 354 1.7 7.0 0.00 2.39 0.00 93 1018.4
20260502102340 54 12 1.7 7.0 0.00 2.39 0.00 93 1018.5
20260502101344 54 2 2.6 7.8 0.00 2.39 0.00 93 1018.3
20260502091343 55 345 1.7 4.3 0.00 2.46 0.00 91 1017.1
20260502090329 56 40 2.6 5.2 0.00 2.46 0.00 91 1017.0
20260502071329 56 19 3.5 9.6 0.00 3.31 0.00 92 1016.6
20260502070334 56 64 1.7 6.1 0.00 3.31 0.00 92 1016.7
20260502065336 56 39 3.5 8.7 0.00 3.33 0.00 92 1016.7
20260502064402 56 358 1.7 8.7 0.00 3.33 0.00 93 1016.7
20260502063331 56 340 3.5 8.7 0.00 3.33 0.00 93 1016.8
20260502062336 56 15 3.5 11.3 0.00 3.33 0.00 93 1016.9
20260502061339 56 8 1.7 8.7 0.00 3.33 0.00 93 1016.7
20260502060325 56 38 5.2 9.6 0.00 3.33 0.00 93 1016.7
20260502055328 56 13 4.3 9.6 0.00 3.36 0.00 93 1016.7
20260502054333 56 306 5.2 13.9 0.00 3.36 0.00 93 1016.8
20260502053338 56 340 4.3 13.0 0.00 3.36 0.00 93 1016.7
20260502052343 56 21 4.3 13.9 0.00 3.36 0.00 94 1016.7
20260502051327 56 345 3.5 12.2 0.00 3.36 0.00 94 1016.7
20260502050331 56 20 4.3 12.2 0.00 3.36 0.00 94 1016.5
20260502045357 56 17 5.2 9.6 0.00 3.55 3.36 94 1016.4
20260502044325 56 350 4.3 9.6 0.00 3.55 3.36 94 1016.3
20260502043329 56 38 4.3 12.2 0.00 3.55 3.36 94 1016.2
20260502042334 57 2 5.2 11.3 0.00 3.55 3.36 94 1016.2
20260502041343 57 360 3.5 13.0 0.00 3.55 3.36 94 1016.3
20260502040330 57 356 3.5 9.6 0.00 3.55 3.36 94 1016.4
20260502035336 57 10 2.6 11.3 0.00 3.55 3.36 94 1016.2
20260502034324 57 360 3.5 12.2 0.00 3.55 3.36 94 1016.0
20260502033327 57 345 2.6 8.7 0.00 3.55 3.36 94 1016.1
20260502032332 57 350 2.6 10.4 0.00 3.55 3.36 94 1016.2
20260502031339 57 345 3.5 10.4 0.00 3.55 3.36 94 1016.1
20260502030345 57 358 3.5 10.4 0.00 3.55 3.36 94 1016.0
20260502025401 57 55 2.6 11.3 0.00 3.55 3.36 95 1015.9
20260502024325 57 8 3.5 12.2 0.00 3.55 3.36 95 1015.6
20260502023330 57 27 3.5 12.2 0.01 3.55 3.36 94 1015.4
20260502022334 57 17 5.2 14.8 0.01 3.55 3.36 94 1015.0
20260502021337 57 4 5.2 14.8 0.02 3.55 3.36 94 1014.4
20260502020342 58 8 4.3 12.2 0.03 3.55 3.36 95 1014.2
20260502015327 58 356 3.5 11.3 0.04 3.55 3.36 94 1014.2
20260502014351 58 345 6.1 13.0 0.08 3.55 3.36 94 1013.8